Weather History for LGEL - December, 2012

Change the Weather History Date:

Saturday, December 22, 2012

  Actual Average Record
Temperature  
Mean Temperature 48 °F -  
Max Temperature 50 °F 54 °F 66 °F (2010)
Min Temperature 46 °F 41 °F 32 °F (2002)
Degree Days  
Heating Degree Days 17    
Moisture  
Dew Point 41 °F    
Average Humidity 75    
Maximum Humidity 87    
Minimum Humidity 62    
Precipitation  
Precipitation 0.00 in - - ()
Sea Level Pressure  
Sea Level Pressure 29.90 in    
Wind  
Wind Speed 5 mph ()    
Max Wind Speed 17 mph    
Max Gust Speed 30 mph    
Visibility 6.2 miles    
Events Rain    
Averages and records for this station are not official NWS values.
T = Trace of Precipitation, MM = Missing Value Source: Averaged Metar Reports

Daily Weather History Graph

Daily Weather History Graph

Search for Another Location

Airport or City:

Trip Planner

Search our weather history database for the weather conditions in past years. The results will help you decide how hot, cold, wet, or windy it might be!

Date:

Astronomy

Dec. 22, 2012 Rise Set
Actual Time 7:38 AM EET 5:10 PM EET
Civil Twilight 7:09 AM EET 5:39 PM EET
Nautical Twilight 6:36 AM EET 6:12 PM EET
Astronomical Twilight 6:04 AM EET 6:44 PM EET
Moon 1:15 PM EET (12/22) 2:09 AM EET (12/22)
Length of Visible Light 10h 30m
Length of Day
9h 31m
Waxing Gibbous, 71% of the Moon is Illuminated
Dec 22
Waxing Gibbous
Dec 28
Full
Jan 5
Last Quarter
Jan 11
New
Jan 19
First Quarter

Hourly Weather History & Observations

Time (EET) Temp. Windchill Dew Point Humidity Pressure Visibility Wind Dir Wind Speed Gust Speed Precip Events Conditions
12:50 AM 48.2 °F - 41.0 °F 76% 29.89 in 6.2 mi Variable 3.5 mph - N/A   Mostly Cloudy
1:50 AM 48.2 °F - 41.0 °F 76% 29.89 in 6.2 mi Calm Calm - N/A   Mostly Cloudy
2:50 AM 48.2 °F - 42.8 °F 82% 29.89 in 6.2 mi North 4.6 mph - N/A   Mostly Cloudy
3:50 AM 48.2 °F - 42.8 °F 82% 29.86 in 6.2 mi Calm Calm - N/A   Mostly Cloudy
4:20 AM 48.2 °F - 41.0 °F 76% 29.86 in 6.2 mi Variable 3.5 mph - N/A   Mostly Cloudy
4:50 AM 48.2 °F - 42.8 °F 82% 29.86 in 6.2 mi Variable 3.5 mph - N/A   Mostly Cloudy
5:20 AM 48.2 °F - 42.8 °F 82% 29.86 in 6.2 mi Variable 2.3 mph - N/A   Mostly Cloudy
5:50 AM 46.4 °F - 42.8 °F 87% 29.86 in 6.2 mi Calm Calm - N/A   Drizzle
6:20 AM 46.4 °F - 42.8 °F 87% 29.86 in 6.2 mi Calm Calm - N/A Rain Light Rain
6:50 AM 46.4 °F - 42.8 °F 87% 29.86 in 6.2 mi Calm Calm - N/A   Mostly Cloudy
7:20 AM 46.4 °F - 42.8 °F 87% 29.86 in 6.2 mi Calm Calm - N/A   Mostly Cloudy
7:50 AM 46.4 °F - 42.8 °F 87% 29.86 in 6.2 mi Calm Calm - N/A   Mostly Cloudy
8:20 AM 48.2 °F - 42.8 °F 82% 29.86 in 6.2 mi ENE 9.2 mph - N/A   Mostly Cloudy
8:50 AM 50.0 °F - 42.8 °F 76% 29.86 in 6.2 mi NE 4.6 mph - N/A   Mostly Cloudy
9:20 AM 48.2 °F - 42.8 °F 82% 29.86 in 6.2 mi Calm Calm - N/A   Drizzle
9:50 AM 50.0 °F - 42.8 °F 76% 29.86 in 6.2 mi WNW 3.5 mph - N/A   Drizzle
10:20 AM 50.0 °F - 44.6 °F 82% 29.89 in 6.2 mi Calm Calm - N/A   Overcast
10:50 AM 50.0 °F - 42.8 °F 76% 29.89 in 6.2 mi NE 4.6 mph - N/A   Light Drizzle
11:20 AM 50.0 °F - 44.6 °F 82% 29.89 in 6.2 mi Calm Calm - N/A Rain Light Rain
11:50 AM 50.0 °F - 44.6 °F 82% 29.89 in 6.2 mi NE 5.8 mph - N/A Rain Light Rain
12:20 PM 50.0 °F - 44.6 °F 82% 29.89 in 6.2 mi NE 9.2 mph - N/A Rain Light Rain
12:50 PM 50.0 °F - 42.8 °F 76% 29.86 in 6.2 mi ENE 10.4 mph - N/A   Overcast
1:20 PM 50.0 °F - 42.8 °F 76% 29.86 in 6.2 mi ENE 11.5 mph - N/A   Light Drizzle
1:50 PM 50.0 °F - 41.0 °F 71% 29.86 in 6.2 mi ENE 12.7 mph - N/A   Light Drizzle
2:20 PM 50.0 °F - 41.0 °F 71% 29.86 in 6.2 mi ENE 12.7 mph - N/A   Light Drizzle
2:50 PM 50.0 °F - 41.0 °F 71% 29.89 in 6.2 mi ENE 12.7 mph - N/A   Light Drizzle
3:20 PM 50.0 °F - 41.0 °F 71% 29.89 in 6.2 mi ENE 12.7 mph - N/A   Light Drizzle
3:50 PM 50.0 °F - 41.0 °F 71% 29.89 in 6.2 mi NNE 4.6 mph - N/A   Overcast
4:20 PM 50.0 °F - 37.4 °F 62% 29.89 in 6.2 mi NE 6.9 mph - N/A   Overcast
4:50 PM 50.0 °F - 39.2 °F 66% 29.92 in 6.2 mi NE 10.4 mph 25.3 mph N/A   Overcast
5:20 PM 50.0 °F - 39.2 °F 66% 29.92 in 6.2 mi NNE 17.3 mph 29.9 mph N/A   Overcast
5:50 PM 48.2 °F - 37.4 °F 66% 29.92 in 6.2 mi NNE 15.0 mph 28.8 mph N/A   Overcast
6:20 PM 48.2 °F - 37.4 °F 66% 29.95 in 6.2 mi North 5.8 mph - N/A   Overcast
6:50 PM 48.2 °F - 37.4 °F 66% 29.95 in 6.2 mi North 9.2 mph - N/A   Overcast
7:20 PM 48.2 °F - 37.4 °F 66% 29.95 in 6.2 mi North 8.1 mph - N/A   Overcast
7:50 PM 48.2 °F - 37.4 °F 66% 29.95 in 6.2 mi WNW 10.4 mph - N/A   Overcast
8:20 PM 48.2 °F - 37.4 °F 66% 29.98 in 6.2 mi NW 11.5 mph - N/A   Overcast
8:50 PM 46.4 °F 41.9 °F 37.4 °F 71% 29.98 in 6.2 mi NNW 9.2 mph 21.9 mph N/A   Overcast
9:20 PM 46.4 °F 42.4 °F 37.4 °F 71% 30.01 in 6.2 mi North 8.1 mph - N/A   Overcast
9:50 PM 46.4 °F 41.9 °F 35.6 °F 66% 30.01 in 6.2 mi NNW 9.2 mph - N/A   Overcast
10:20 PM 46.4 °F 41.1 °F 35.6 °F 66% 30.01 in 6.2 mi NNW 11.5 mph - N/A   Overcast
10:50 PM 46.4 °F 40.7 °F 35.6 °F 66% 30.01 in 6.2 mi NNW 12.7 mph - N/A   Overcast